Location: Chippewa Lake
(41.0698°N, 81.9010°W)
Time: 02:14:50
(UTC+00:00)

AQUA - Pass Details

Date: 09 May 2021
Orbit: 702 x 703 km, 98.2° (Epoch: 24 June)

Event Time Altitude Azimuth Distance (km) Brightness Sun altitude
Rises 07:44:40 0° 8° (N) 3,100 8.2 -23.0°
Reaches altitude 10° 07:46:57 10° 5° (N) 2,178 7.1 -22.8°
Maximum altitude 07:51:37 57° 287° (WNW) 828 4.0 -22.2°
Enters shadow 07:52:14 52° 256° (WSW) 869 3.9 -22.2°
